Location: Aranbee
(34.0885°N, 118.2342°W)
Time: 13:46:19
(UTC+00:00)

Tiros 1 - Pass Details

Date: 05 December 2020
Orbit: 630 x 663 km, 48.4° (Epoch: 21 January)

Event Time Altitude Azimuth Distance (km) Brightness Sun altitude
Rises 01:29:36 0° 313° (NW) 2,992 10.9 -9.6°
Reaches altitude 10° 01:32:24 10° 328° (NNW) 2,074 9.9 -10.2°
Maximum altitude 01:36:11 23° 21° (NNE) 1,400 8.5 -10.9°
Enters shadow 01:38:42 15° 61° (ENE) 1,725 8.7 -11.4°
Drops below altitude 10° 01:39:57 10° 73° (ENE) 2,057 - -11.6°
Sets 01:42:42 0° 89° (E) 2,960 - -12.2°
